Location: Sedan
(39.2354°N, 78.5718°W)
Time: 23:21:53
(UTC+00:00)

ISS - Pass Details

Date: 04 December 2021
Orbit: 413 x 422 km, 51.6° (Epoch: 25 January)

Event Time Altitude Azimuth Distance (km) Brightness Sun altitude
Rises 23:01:24 0° 314° (NW) 2,384 0.5 -13.3°
Reaches altitude 10° 23:03:45 10° 328° (NNW) 1,514 -0.8 -13.7°
Maximum altitude 23:06:40 26° 27° (NNE) 870 -2.6 -14.3°
Enters shadow 23:07:09 25° 42° (NE) 892 -2.6 -14.4°
